Regional Weather Roundup
Issued by NWS

Home | Current Version | Previous Version | Text Only | Print | Product List | Glossary On
Versions: 1 2 3 4 5 6 7 8 9 10 11 12 13 14 15 16 17 18 19 20 21 22 23 24 25 26 27 28 29 30 31 32 33 34 35 36 37 38 39 40 41 42 43 44 45 46 47 48 49 50
000
ASHW40 PHFO 240743
RWRHI

WEATHER ROUNDUP FOR HAWAII
NATIONAL WEATHER SERVICE HONOLULU HI
900 PM HST WED APR 23 2014

THIS IS AN AUTOMATED REPORT THAT HAS NOT BEEN QUALITY CONTROLLED.

NOTE..."FAIR" INDICATES FEW OR NO CLOUDS BELOW 12,000 FEET WITH NO
SIGNIFICANT WEATHER AND/OR OBSTRUCTIONS TO VISIBILITY.

* - THESE SITES REPORT LIMITED FIELDS

HIZ001>004-240800-
KAUAI-NIIHAU-

CITY           SKY/WX    TMP DP  RH WIND       PRES   REMARKS
LIHUE APT      MOCLDY    73  68  83 NE21      30.16R
PORT ALLEN*      N/A     73 N/A N/A E14G22      N/A
POIPU*           N/A     73 N/A N/A NE12G22     N/A
PRINCEVILLE*   NOT AVBL
KOKOLE POINT*  NOT AVBL
MOLOAA DAIRY*  NOT AVBL
WAIMEA HTS*      N/A     73  59  60 E10G20      N/A
PUU OPAE*        N/A     66  57  72 E6G15       N/A
PUU LUA*       NOT AVBL
MAKAHA RIDGE*  NOT AVBL
$$

HIZ005>011-240800-
OAHU-

CITY           SKY/WX    TMP DP  RH WIND       PRES   REMARKS
HONOLULU       PTCLDY    77  65  66 E13       30.10R
KALAELOA       PTCLDY    75  64  68 E6        30.10R
KANEOHE MCB    MOCLDY    77  65  66 E10G17    30.12R
WHEELER FIELD  NOT AVBL
BELLOWS*       NOT AVBL
KAHUKU*          N/A    N/A N/A N/A NE8G18      N/A
WHEELER*       NOT AVBL
WAIANAE HARBOR NOT AVBL
DILLINGHAM*      N/A     72  68  88 E3          N/A
KAHUKU TRN*      N/A     72  68  88 E12G22      N/A
KAWAILOA*      NOT AVBL
KII*             N/A     73  68  83 NE17G26     N/A
MAKUA RANGE*     N/A     75  68  78 NE10G24     N/A
OAHU FOREST NW   N/A     64  64 100 VRB20G40    N/A
SCHOFIELD BRK*   N/A     70  64  83 MISG        N/A
SCHOFIELD S*     N/A     66 N/A N/A CALM        N/A
WAIANAE VLY*     N/A     70  63  78 NE10G40     N/A
KUAOKALA*        N/A     70  66  88 NE22G36     N/A
HONOULIUULI*   NOT AVBL
MOKUOLOE IS*     N/A    N/A N/A N/A MISG        N/A
PALEHUA*         N/A     77  64  65 CALM        N/A
WAIAWA PHB*    NOT AVBL
$$

HIZ012>013-240800-
MOLOKAI-

CITY           SKY/WX    TMP DP  RH WIND       PRES   REMARKS
MOLOKAI AIRPT  PTCLDY    72  69  90 NE16G24   30.12R
KALAUPAPA      NOT AVBL
MAKAPULAPAI*     N/A     73  68  83 E22G28      N/A
MOLOKAI 1*       N/A     63  57  82 W5G16       N/A
PUU ALII*        N/A     56  55  96 E3G17       N/A
$$

HIZ016-240800-
KAHOOLAWE-

CITY           SKY/WX    TMP DP  RH WIND       PRES   REMARKS
KAHOOLAWE*       N/A     68 N/A N/A E18G28      N/A
HAKIOAWA*        N/A     70  60  70 MISG      30.21R
HONOKANAIA*      N/A     75  63  66 NE18G35   30.09R
KANELOA*       NOT AVBL
KEALIALALO*      N/A    N/A N/A N/A E15G45      N/A
LUA MAKIKA*    NOT AVBL
$$

HIZ014>015-240800-
LANAI-

CITY           SKY/WX    TMP DP  RH WIND       PRES   REMARKS
LANAI CITY     FAIR      69  64  84 E14       30.13R
LANAI 1*         N/A     70  70 100 NE18G35     N/A
$$

HIZ017>028-240800-
MAUI-

CITY           SKY/WX    TMP DP  RH WIND       PRES   REMARKS
KAHULUI        PTCLDY    74  67  78 NE17      30.09R
KAPALUA-W MAUI NOT AVBL
HANA AIRPORT   NOT AVBL
HANA*            N/A     75 N/A N/A E7G13       N/A
HALEAKALA SUMM   N/A     43   9  24 NE25        N/A
MAALAEA BAY*   NOT AVBL
HALEAKALA*     NOT AVBL
KAUPO GAP*       N/A     70  39  32 N16G35      N/A
KULA 1*          N/A     50  39  65 E3          N/A
$$

HIZ023>026-240800-
BIG ISLAND OF HAWAII COAST AND LOWER SLOPES-

CITY           SKY/WX    TMP DP  RH WIND       PRES   REMARKS
KAILUA KONA    PTCLDY    78  67  68 SE9G20    30.04R
HILO           PTCLDY    74  68  81 CALM      30.12R
HONOKAA*       NOT AVBL
KAWAIHAE MWT*    N/A     81 N/A N/A NE12G29     N/A
KAWAIHAE*        N/A     81 N/A N/A E16G31      N/A
SOUTH POINT*     N/A     72 N/A N/A NE21G31     N/A
UPOLU AIRPORT*   N/A    N/A N/A N/A E18G31      N/A
KAMUELA*       SUNNY     61  59  94 N21       30.17R
HAKALAU*         N/A     48  48 100 W1          N/A
KALOKO-HONOKO*   N/A     75  66  73 E5        30.03R
PALI 2*          N/A     63  57  82 N20G29      N/A
KEALAKOMO*       N/A     75  59  57 NE13G24     N/A
KAUPULEHU*       N/A     72  55  56 E7G15       N/A
KAPAPALA*        N/A     66  58  75 N1G16       N/A
LOWER KAHUKU*  NOT AVBL
PUHE CS*       NOT AVBL
PUHO CS*         N/A     76  64  67 E2          N/A
PTA KEAMUKU*     N/A     57  54  88 SE5G14      N/A
WAIKOLOA*        N/A     72  57  60 E8G25       N/A
$$

HIZ027>028-240800-
BIG ISLAND OF HAWAII INTERIOR AND SUMMMITS-

CITY           SKY/WX    TMP DP  RH WIND       PRES   REMARKS
BRADSHAW FIELD NOT AVBL
MK VISITOR CEN NOT AVBL
MAUNA KEA*       N/A     34 -22   8 E17         N/A  WCI  23
MAUNA LOA*       N/A     46 -18   6 MISG        N/A
MAUNA LOA 1*     N/A    N/A N/A N/A MISG        N/A
PTA KIPUKA*      N/A     55  52  88 S1G9        N/A
PTA RANGE 17*    N/A     57  50  77 E12G25      N/A
PTA WEST*        N/A     73  68  83 E6G13       N/A
NENE CABIN*    NOT AVBL
AHUMOA*          N/A     51  50  97 CALM        N/A
PTA PORTABLE*  NOT AVBL
PUU MALI*      NOT AVBL
$$

HIC003-240800-
NORTHWEST ISLANDS-

CITY           SKY/WX    TMP DP  RH WIND       PRES   REMARKS
MIDWAY ISLAND  CLEAR     73  72  94 SE13      30.18S
MIDWAY NOS*    NOT AVBL
FRENCH FRIGATE NOT AVBL
$$

PHZ110>124-180-240800-
BUOY REPORTS

STATION/POSITION TIME  TEMP    WIND        PRES    WAVE   SWELL
                       AIR SEA DIR/SP/G            HT/PER HT/DIR
                 (UTC) (F)     (DEG/KT/KT) (MB)    (FT/S) (FT/D)
BUOY 51001       NOT AVBL
BUOY 51101       0700   73 72   60/ 17/ 25 1021.7R  10/14
BUOY 51100       0600   73 74   60/ 16/ 19 1020.8R
BUOY 51003       0700   77 78   70/ 16/ 17 1017.6R   8/15   7
BUOY 51004       0700   78 79   70/ 19/ 23 1014.8R   9/10   5
BARBERS PT BUOY  NOT AVBL
WAIMEA BAY BUOY  0700      76                N/A     7/17   3/310
KAILUA BAY BUOY  0700      75                N/A     7/ 8   2/350
LANAI BUOY       0700      77                N/A     3/15   2/250
BARBERS PT 2     0700      76                N/A     5/15   3/310
PAUWELA MAUI     NOT AVBL
HILO             0700      77                N/A     8/ 8
KANEOHE BAY BUOY 0700      75                N/A     7/ 8   2/ 50
HANALEI KAUAI    0700      76                N/A     8/14   3/320
KAHULUI HARBOR   0700   75 77   40/ 13/ 19 1019.2R
HONOLULU HARBOR  0700   76      60/  3/  8 1019.3R
KILO NALU        NOT AVBL
HILO HARBOR      0700   75 77  360/  6/  7 1019.6R
MOKUOLOE         0700   75 76   70/ 13/ 16 1020.1R
NAWILIWILI       0700      76                N/A
WHOTS BUOY       NOT AVBL
BUOY 51028       NOT AVBL
$$

......................KEY........................................
  SKY/WX - SKY CONDITIONS/PRESENT WEATHER
  TMP    - TEMPERATURE IN FAHRENHEIT
  DWPT   - DEWPOINT IN FAHRENHEIT
  RH     - RELATIVE HUMIDITY IN PERCENT
  WIND   - DIRECTION AND SPEED /MPH FOR ISLANDS...KTS FOR BUOYS/
  PRES   - MEAN SEA LEVEL PRESSURE IN INCHES OF HG
  VSB    - VISIBILITY IN MILES
  HX     - HEAT INDEX
  WCI    - WIND CHILL INDEX
  VRB    - VARIABLE WIND DIRECTION
  N/A    - NOT AVAILABLE



USA.gov is the U.S. government's official web portal to all federal, state and local government web resources and services.